DW9558 Weather Reports


Display with metric or nautical units.
time (UTC)temp
F
wind
direction
speed
MPH
gust
MPH
rain 1hr
in
rain 24hr
in
rain mn
in
humidity
%
barometer
mb
20260903061538 64 181 0.0 0.0 0.00 0.00 0.00 68 1021.1
20260903060022 65 181 0.0 5.0 0.00 0.00 0.00 66 1021.1
20260903054522 65 181 0.0 6.0 0.00 0.00 0.00 65 1021.1
20260903053022 66 180 0.0 5.0 0.00 0.00 0.00 64 1021.2
20260903051521 66 181 1.0 4.0 0.00 0.00 0.00 62 1021.3
20260903050028 67 180 0.0 2.0 0.00 0.00 0.00 61 1021.4
20260903044520 68 180 1.0 7.0 0.00 0.00 0.00 60 1021.4
20260903043021 68 180 0.0 4.0 0.00 0.00 0.00 60 1021.3
20260903041527 69 181 1.0 4.0 0.00 0.00 0.00 59 1021.1
20260903040019 70 180 0.0 3.0 0.00 0.00 0.00 59 1020.9
20260903034525 70 180 0.0 6.0 0.00 0.00 0.00 57 1020.7
20260903033035 71 180 0.0 4.0 0.00 0.00 0.00 56 1020.5
20260903031518 71 180 0.0 5.0 0.00 0.00 0.00 54 1020.4
20260903030019 72 181 0.0 3.0 0.00 0.00 0.00 52 1020.3
20260903024517 72 180 0.0 5.0 0.00 0.00 0.00 51 1020.3
20260903023015 73 181 0.0 3.0 0.00 0.00 0.00 50 1020.5
20260903021515 73 180 0.0 4.0 0.00 0.00 0.00 49 1020.5
20260903020013 74 181 0.0 4.0 0.00 0.00 0.00 49 1020.5
20260903014511 74 180 0.0 5.0 0.00 0.00 0.00 49 1020.7
20260903013011 74 180 1.0 7.0 0.00 0.00 0.00 50 1020.7
20260903011511 75 180 0.0 5.0 0.00 0.00 0.00 51 1020.7
20260903010010 75 181 0.0 7.0 0.00 0.00 0.00 51 1020.8
20260903004510 75 180 1.0 8.0 0.00 0.00 0.00 51 1020.8
20260903003008 76 181 0.0 7.0 0.00 0.00 0.00 50 1021.0
20260903001506 77 182 1.0 7.0 0.00 0.00 0.00 50 1021.1
20260903000005 77 181 0.0 5.0 0.00 0.00 0.00 52 1021.2
20260902234502 77 181 0.0 5.0 0.00 0.00 0.00 52 1021.4
20260902233001 76 181 2.0 9.0 0.00 0.00 0.00 52 1021.4
20260902231609 76 180 1.0 5.0 0.00 0.00 0.00 52 1021.5
20260902230059 76 180 0.0 13.0 0.00 0.00 0.00 53 1021.7
20260902224605 76 180 2.0 10.0 0.00 0.00 0.00 54 1021.8
20260902223059 77 180 0.0 5.0 0.00 0.00 0.00 52 1021.8
20260902221556 76 180 0.0 10.0 0.00 0.00 0.00 53 1021.9
20260902220059 76 178 0.0 6.0 0.00 0.00 0.00 54 1022.0
20260902214554 76 178 0.0 4.0 0.00 0.00 0.00 55 1022.2
20260902213103 76 178 1.0 11.0 0.00 0.00 0.00 55 1022.4
20260902211552 75 177 0.0 6.0 0.00 0.00 0.00 55 1022.5
20260902210051 75 177 0.0 2.0 0.00 0.00 0.00 57 1022.5
20260902204549 74 177 1.0 8.0 0.00 0.00 0.00 56 1022.6
20260902203101 75 177 0.0 5.0 0.00 0.00 0.00 56 1022.7
20260902201550 75 177 0.0 4.0 0.00 0.00 0.00 54 1022.8
20260902200054 75 177 1.0 6.0 0.00 0.00 0.00 55 1023.0
20260902194543 75 177 2.0 7.0 0.00 0.00 0.00 55 1023.1
20260902193042 74 177 1.0 6.0 0.00 0.00 0.00 56 1023.3
20260902191548 74 177 1.0 6.0 0.00 0.00 0.00 57 1023.5
20260902190035 73 177 0.0 2.0 0.00 0.00 0.00 59 1023.6
20260902184545 73 177 1.0 6.0 0.00 0.00 0.00 58 1023.6
20260902183030 73 177 0.0 7.0 0.00 0.00 0.00 59 1023.5
20260902181528 73 177 0.0 3.0 0.00 0.00 0.00 59 1023.4
20260902180029 72 177 0.0 6.0 0.00 0.00 0.00 60 1023.4
20260902174520 71 177 0.0 4.0 0.00 0.00 0.00 63 1023.5
20260902173017 69 177 0.0 6.0 0.00 0.00 0.00 64 1023.6
20260902171515 68 177 0.0 5.0 0.00 0.00 0.00 66 1023.4
20260902170011 68 177 0.0 4.0 0.00 0.00 0.00 66 1023.3
20260902164505 67 177 0.0 4.0 0.00 0.00 0.00 68 1023.2
20260902163001 66 177 0.0 4.0 0.00 0.00 0.00 70 1023.1
20260902161601 65 177 0.0 5.0 0.00 0.00 0.00 73 1023.1
20260902160100 64 177 0.0 0.0 0.00 0.00 0.00 75 1023.3
20260902154551 63 177 0.0 3.0 0.00 0.00 0.00 77 1023.3
20260902153050 63 177 0.0 3.0 0.00 0.00 0.00 78 1023.3
20260902151553 62 177 0.0 5.0 0.00 0.00 0.00 80 1023.2
20260902150045 61 178 0.0 4.0 0.00 0.00 0.00 82 1023.0
20260902144543 60 178 0.0 0.0 0.00 0.00 0.00 82 1023.0
20260902143037 60 178 0.0 4.0 0.00 0.00 0.00 83 1022.9
20260902141538 60 178 0.0 3.0 0.00 0.00 0.00 83 1022.6
20260902140037 59 178 0.0 3.0 0.00 0.00 0.00 84 1022.7
20260902134532 59 178 0.0 0.0 0.00 0.00 0.00 84 1022.6
20260902133031 59 178 0.0 0.0 0.00 0.00 0.00 84 1022.4
20260902131530 59 178 0.0 0.0 0.00 0.00 0.00 83 1022.2
20260902130032 59 178 0.0 3.0 0.00 0.00 0.00 83 1022.2
20260902124529 59 178 0.0 4.0 0.00 0.00 0.00 83 1022.2
20260902123030 60 178 0.0 5.0 0.00 0.00 0.00 85 1022.1
20260902121526 60 178 0.0 0.0 0.00 0.00 0.00 85 1022.0
20260902120027 60 178 0.0 0.0 0.00 0.00 0.00 85 1022.1
20260902114528 60 178 0.0 0.0 0.00 0.00 0.00 85 1021.9
20260902113025 60 178 0.0 0.0 0.00 0.00 0.00 86 1021.9
20260902111534 60 178 0.0 0.0 0.00 0.00 0.00 85 1021.9
20260902110023 60 178 0.0 3.0 0.00 0.00 0.00 85 1022.0
20260902104522 60 178 0.0 0.0 0.00 0.00 0.00 84 1022.2
20260902103021 60 178 0.0 2.0 0.00 0.00 0.00 83 1022.2
20260902101522 61 178 0.0 4.0 0.00 0.00 0.00 83 1022.2
20260902100019 61 178 0.0 3.0 0.00 0.00 0.00 82 1022.4
20260902094518 61 178 0.0 3.0 0.00 0.00 0.00 81 1022.4
20260902093017 61 178 0.0 3.0 0.00 0.00 0.00 81 1022.4
20260902091517 61 178 0.0 4.0 0.00 0.00 0.00 81 1022.4
20260902090016 61 178 0.0 4.0 0.00 0.00 0.00 81 1022.2
20260902084515 61 178 0.0 3.0 0.00 0.00 0.00 81 1022.2
20260902083013 61 178 0.0 3.0 0.00 0.00 0.00 81 1022.2
20260902081511 61 178 0.0 2.0 0.00 0.00 0.00 81 1022.2
20260902080010 62 178 0.0 1.0 0.00 0.00 0.00 81 1022.1
20260902074510 62 178 0.0 2.0 0.00 0.00 0.00 81 1022.0
20260902073007 62 178 0.0 5.0 0.00 0.00 0.00 81 1022.1
20260902071509 62 178 0.0 0.0 0.00 0.00 0.00 81 1021.9
20260902070006 62 178 0.0 5.0 0.00 0.00 0.00 81 1021.9
20260902064501 62 178 0.0 7.0 0.00 0.00 0.00 80 1021.7
20260902063002 62 178 1.0 5.0 0.00 0.00 0.00 80 1021.8